sat.trackr.live / text

‹ back to catalog

HULIANWANG DIGUI-09

NORAD 62331 · 2024-240J

PAYLOAD ACTIVE UNKNOWN

§ Identity

Operator
Country
PRC
Launch date
2024-12-16
Launch site
WSC
Launch vehicle
Mass (kg)
RCS (m²)

External: N2YO · Heavens-Above · Gunter

§ Orbital elements

Epoch: 2026-09-22T20:32:32.589600Z

Period
108.73 min
Inclination
86.4982°
Eccentricity
0.0001647
Mean motion
13.24412881 rev/d
Perigee alt
1,166.7 km
Apogee alt
1,169.2 km
Semi-major
7,546.0 km
B*
8.4743e-5
RAAN
310.3289°
Arg perigee
91.3032°
Mean anomaly
268.8291°
Rev number
8,556

§ Raw data

HULIANWANG DIGUI-091 62331U 24240J   26265.85593275  .00000051  00000+0  84743-4 0  99972 62331  86.4982 310.3289 0001647  91.3032 268.8291 13.24412881 85560

JSON: /api/v1/satellites/62331 · /tle

For live sub-satellite position, see the globe view (requires WebGL).

§ Visibility from observer

Set your observer location to see the next 7 days of passes ≥ 10°. The values pass through the URL so the page stays shareable.

No JS? Fill the form by hand. The geolocation button needs JavaScript.